Weather History for KBKW - January, 2013

Change the Weather History Date:

Wednesday, January 9, 2013

  Actual Average Record
Temperature  
Mean Temperature 44 °F 31 °F  
Max Temperature 50 °F 39 °F 69 °F (1937)
Min Temperature 38 °F 23 °F -9 °F (1970)
Degree Days  
Heating Degree Days 21 34  
Month to date heating degree days 292 306  
Since 1 July heating degree days 2314 2399  
Cooling Degree Days 0 0  
Month to date cooling degree days 0 0  
Year to date cooling degree days 0 0  
Moisture  
Dew Point 40 °F    
Average Humidity 73    
Maximum Humidity 100    
Minimum Humidity 46    
Precipitation  
Precipitation 0.11 in 0.09 in 1.10 in (1935)
Month to date precipitation 0.25 0.83  
Year to date precipitation 0.25 0.83  
Snow  
Snow 0.00 in - - ()
Month to date snowfall 0.2  
Since 1 September snowfall 38.4  
Snow Depth 0.00 in    
Sea Level Pressure  
Sea Level Pressure 30.41 in    
Wind  
Wind Speed 5 mph (WSW)    
Max Wind Speed 12 mph    
Max Gust Speed 15 mph    
Visibility 5 miles    
Events Fog , Rain    
T = Trace of Precipitation, MM = Missing Value Source: NWS Daily Summary

Daily Weather History Graph

Daily Weather History Graph

Search for Another Location

Airport or City:

Trip Planner

Search our weather history database for the weather conditions in past years. The results will help you decide how hot, cold, wet, or windy it might be!

Date:

Astronomy

Jan. 09, 2013 Rise Set
Actual Time 7:40 AM EST 5:23 PM EST
Civil Twilight 7:11 AM EST 5:52 PM EST
Nautical Twilight 6:38 AM EST 6:25 PM EST
Astronomical Twilight 6:06 AM EST 6:56 PM EST
Moon 5:17 AM EST (1/9) 3:23 PM EST (1/9)
Length of Visible Light 10h 41m
Length of Day
9h 43m
Waning Crescent, 6% of the Moon is Illuminated
Jan 9
Waning Crescent
Jan 11
New
Jan 18
First Quarter
Jan 26
Full
Feb 3
Last Quarter

Hourly Weather History & Observations

Time (EST) Temp. Windchill Dew Point Humidity Pressure Visibility Wind Dir Wind Speed Gust Speed Precip Events Conditions
12:51 AM 42.1 °F 36.1 °F 24.1 °F 49% 30.32 in 10.0 mi SE 10.4 mph - N/A   Clear
1:51 AM 42.1 °F 38.4 °F 25.0 °F 51% 30.32 in 10.0 mi SSE 5.8 mph - N/A   Clear
2:51 AM 42.1 °F 40.2 °F 27.0 °F 55% 30.34 in 10.0 mi SSE 3.5 mph - N/A   Clear
3:51 AM 39.0 °F 34.8 °F 28.0 °F 65% 30.35 in 10.0 mi SSW 5.8 mph - N/A   Clear
4:24 AM 44.6 °F 43.1 °F 33.8 °F 66% 30.31 in 10.0 mi SSW 3.5 mph - N/A   Mostly Cloudy
4:39 AM 37.4 °F - 30.2 °F 75% 30.31 in 10.0 mi Calm Calm - N/A   Overcast
4:51 AM 37.9 °F - 30.0 °F 73% 30.35 in 10.0 mi Calm Calm - N/A   Overcast
5:51 AM 39.0 °F 36.8 °F 32.0 °F 76% 30.37 in 10.0 mi SSW 3.5 mph - N/A   Overcast
6:51 AM 46.9 °F - 35.1 °F 63% 30.37 in 10.0 mi SW 5.8 mph - N/A   Overcast
7:48 AM 46.4 °F - 35.6 °F 66% 30.35 in 10.0 mi Calm Calm - N/A   Overcast
7:51 AM 46.0 °F 44.8 °F 36.0 °F 68% 30.38 in 10.0 mi SW 3.5 mph - N/A   Overcast
8:11 AM 46.4 °F - 35.6 °F 66% 30.35 in 10.0 mi Calm Calm - N/A   Overcast
8:21 AM 46.4 °F - 35.6 °F 66% 30.36 in 10.0 mi Calm Calm - N/A   Overcast
9:51 AM 50.0 °F - 37.9 °F 63% 30.40 in 10.0 mi SW 3.5 mph - N/A   Overcast
10:51 AM 50.0 °F - 39.9 °F 68% 30.41 in 10.0 mi WSW 3.5 mph - 0.00 in   Overcast
11:33 AM 48.2 °F - 42.8 °F 82% 30.39 in 5.0 mi Calm Calm - 0.00 in Rain Light Rain
11:51 AM 46.4 °F - 42.8 °F 87% 30.38 in 10.0 mi Calm Calm - N/A   Overcast
12:16 PM 46.4 °F - 42.8 °F 87% 30.39 in 1.8 mi Calm Calm - 0.01 in Rain Light Rain
12:40 PM 46.4 °F 45.2 °F 44.6 °F 93% 30.39 in 2.5 mi SW 3.5 mph - 0.03 in Rain Light Rain
12:51 PM 46.0 °F 44.8 °F 45.0 °F 96% 30.41 in 2.5 mi SSW 3.5 mph - 0.04 in Rain Light Rain
1:02 PM 46.4 °F 45.2 °F 44.6 °F 93% 30.38 in 3.0 mi SSW 3.5 mph - 0.01 in Rain Light Rain
1:51 PM 48.0 °F - 46.0 °F 93% 30.40 in 5.0 mi SW 5.8 mph - 0.03 in Rain Light Rain
2:51 PM 48.0 °F - 46.0 °F 93% 30.39 in 10.0 mi SSW 6.9 mph - 0.01 in Rain Light Rain
3:51 PM 46.9 °F - 45.0 °F 93% 30.41 in 7.0 mi SW 5.8 mph - 0.00 in   Overcast
4:05 PM 46.4 °F 42.4 °F 44.6 °F 93% 30.37 in 1.8 mi SW 8.1 mph - N/A   Overcast
4:15 PM 46.4 °F 42.9 °F 44.6 °F 93% 30.37 in 0.2 mi SW 6.9 mph - N/A Fog Fog
4:51 PM 46.0 °F 41.9 °F 45.0 °F 96% 30.42 in 0.2 mi SW 8.1 mph - N/A Fog Fog
5:33 PM 46.4 °F 42.9 °F 44.6 °F 93% 30.39 in 0.5 mi WSW 6.9 mph - N/A Fog Fog
5:51 PM 46.0 °F 43.1 °F 45.0 °F 96% 30.44 in 0.5 mi WSW 5.8 mph - N/A Fog Fog
6:16 PM 46.4 °F 43.5 °F 44.6 °F 93% 30.41 in 0.2 mi WSW 5.8 mph - N/A Fog Fog
6:46 PM 46.4 °F 44.3 °F 44.6 °F 93% 30.42 in 0.5 mi SW 4.6 mph - 0.00 in Fog Fog
6:51 PM 46.4 °F 45.2 °F 44.6 °F 93% 30.42 in 0.8 mi SW 3.5 mph - N/A   Mist
7:02 PM 46.4 °F 44.3 °F 44.6 °F 93% 30.43 in 1.0 mi SW 4.6 mph - N/A   Mist
7:31 PM 46.4 °F 44.3 °F 44.6 °F 93% 30.44 in 0.8 mi WSW 4.6 mph - 0.01 in Rain Light Rain
7:51 PM 46.0 °F 43.9 °F 45.0 °F 96% 30.47 in 0.5 mi West 4.6 mph - 0.01 in Fog , Rain Light Rain
8:06 PM 46.4 °F 43.5 °F 44.6 °F 93% 30.45 in 1.0 mi West 5.8 mph - 0.01 in   Mist
8:13 PM 46.4 °F 44.3 °F 44.6 °F 93% 30.46 in 0.5 mi WNW 4.6 mph - 0.01 in Fog Fog
8:25 PM 46.4 °F 45.2 °F 44.6 °F 93% 30.46 in 1.2 mi West 3.5 mph - 0.01 in   Overcast
8:33 PM 46.4 °F 44.3 °F 44.6 °F 93% 30.47 in 3.0 mi West 4.6 mph - 0.01 in   Overcast
8:51 PM 46.0 °F 43.9 °F 44.1 °F 93% 30.49 in 9.0 mi NW 4.6 mph - 0.01 in   Overcast
9:06 PM 44.6 °F 43.1 °F 44.6 °F 100% 30.47 in 1.8 mi NNW 3.5 mph - N/A   Overcast
9:13 PM 44.6 °F 43.1 °F 42.8 °F 93% 30.47 in 0.2 mi NW 3.5 mph - N/A Fog Fog
9:24 PM 44.6 °F 42.2 °F 42.8 °F 93% 30.47 in 1.0 mi WNW 4.6 mph - N/A   Mostly Cloudy
9:31 PM 44.6 °F 41.4 °F 42.8 °F 93% 30.47 in 0.8 mi NW 5.8 mph - N/A   Scattered Clouds
9:36 PM 44.6 °F 42.2 °F 42.8 °F 93% 30.47 in 1.0 mi NW 4.6 mph - N/A   Mist
9:40 PM 44.6 °F 42.2 °F 42.8 °F 93% 30.47 in 2.5 mi WNW 4.6 mph - N/A   Partly Cloudy
9:47 PM 42.8 °F 41.1 °F 42.8 °F 100% 30.47 in 5.0 mi WNW 3.5 mph - N/A   Clear
9:51 PM 43.0 °F 41.3 °F 42.1 °F 97% 30.49 in 1.0 mi West 3.5 mph - N/A   Mist
9:54 PM 42.8 °F 41.1 °F 41.0 °F 93% 30.47 in 0.2 mi West 3.5 mph - N/A Fog Fog
10:09 PM 42.8 °F 41.1 °F 42.8 °F 100% 30.47 in 1.0 mi WNW 3.5 mph - N/A   Mist
10:21 PM 44.6 °F 42.2 °F 42.8 °F 93% 30.47 in 2.0 mi WNW 4.6 mph - N/A   Partly Cloudy
10:29 PM 42.8 °F 40.1 °F 42.8 °F 100% 30.48 in 8.0 mi WNW 4.6 mph - N/A   Clear
10:51 PM 42.1 °F 38.4 °F 41.0 °F 96% 30.51 in 10.0 mi NW 5.8 mph - N/A   Clear
11:51 PM 42.1 °F 39.2 °F 37.0 °F 82% 30.51 in 10.0 mi NW 4.6 mph - N/A   Clear